Total_Precipitation_Accumulation
1.32 1.22 1.20 1.37 1.34 1.43 1.46 1.50 1.51 1.37 1.26 1.17 1.19 1.16 1.20 1.11 1.06 1.06 1.33 1.52 1.77 2.27 2.52 2.45 2.35 2.11 2.00 1.95 1.99 2.01 1.99 1.93 2.16 2.57 3.17 3.45 3.12 2.47 2.10 1.88 1.71 1.51 1.54
1.21 1.23 1.14 1.21 1.30 1.47 1.68 1.72 1.54 1.45 1.37 1.33 1.35 1.31 1.28 1.21 1.16 1.05 1.22 1.32 1.27 1.51 1.98 2.50 2.72 2.49 2.30 2.16 2.08 2.10 2.05 1.95 2.05 2.25 2.36 2.53 2.60 2.26 1.84 1.79 1.71 1.54 1.67
1.03 1.15 1.21 1.19 1.23 1.47 1.73 1.87 1.71 1.57 1.42 1.42 1.42 1.41 1.32 1.31 1.24 1.14 1.24 1.41 1.27 1.23 1.57 2.14 2.66 2.78 2.63 2.46 2.25 2.18 2.01 1.85 1.84 1.94 2.07 2.06 2.19 2.14 1.82 1.71 1.67 1.60 1.62
1.04 1.16 1.25 1.21 1.22 1.42 1.68 1.90 1.94 1.91 1.82 1.73 1.62 1.54 1.46 1.57 1.43 1.31 1.34 1.45 1.57 1.42 1.40 1.61 2.02 2.47 2.69 2.67 2.40 2.13 1.92 1.76 1.71 1.72 1.81 1.70 1.82 1.96 1.78 1.64 1.70 1.81 1.77
1.08 1.20 1.41 1.44 1.42 1.54 1.66 1.71 1.85 1.87 1.92 1.90 1.68 1.63 1.55 1.66 1.73 1.63 1.69 1.70 1.74 1.69 1.52 1.33 1.46 1.70 2.22 2.56 2.52 2.28 2.09 1.87 1.74 1.64 1.73 1.60 1.61 1.75 1.63 1.58 1.69 1.84 1.83
1.31 1.28 1.43 1.46 1.49 1.68 1.76 1.86 2.08 2.03 1.93 2.02 1.82 1.70 1.66 1.65 1.68 1.84 1.96 1.90 1.83 1.71 1.68 1.48 1.52 1.46 1.77 2.15 2.30 2.30 2.17 2.12 2.05 1.89 1.87 1.71 1.54 1.59 1.60 1.53 1.61 1.72 1.82
1.43 1.45 1.47 1.49 1.52 1.61 1.69 1.88 2.22 2.24 2.06 1.95 2.15 2.14 2.04 1.83 1.74 1.78 1.84 1.97 1.98 1.81 1.79 1.78 1.67 1.55 1.45 1.60 1.76 2.02 2.11 2.32 2.42 2.26 2.09 1.85 1.56 1.55 1.64 1.52 1.58 1.63 1.64
1.39 1.34 1.50 1.59 1.56 1.69 1.78 1.96 2.27 2.49 2.25 2.06 2.41 2.87 2.63 2.33 1.98 1.73 1.71 1.66 1.83 1.84 1.72 1.60 1.55 1.53 1.47 1.46 1.26 1.43 1.74 2.24 2.67 2.51 2.17 2.00 1.77 1.68 1.75 1.60 1.57 1.56 1.54
1.63 1.59 1.68 1.79 1.71 1.76 1.87 1.93 2.03 2.51 2.66 2.40 2.35 2.93 2.81 2.60 2.55 2.01 1.57 1.42 1.62 1.76 1.77 1.66 1.59 1.65 1.65 1.61 1.34 1.12 1.31 1.73 2.40 2.51 2.27 2.21 2.09 1.90 1.76 1.63 1.56 1.54 1.60
1.84 1.73 1.76 1.81 1.81 1.87 1.85 1.72 1.89 2.35 2.83 2.88 2.66 2.45 2.30 2.27 2.46 2.34 1.76 1.43 1.49 1.62 1.78 1.67 1.63 1.73 1.77 1.84 1.76 1.39 1.17 1.32 1.94 2.53 2.65 2.57 2.44 2.20 2.01 1.85 1.70 1.64 1.63
1.86 1.70 1.65 1.76 1.81 1.88 1.88 1.94 2.11 2.41 2.70 2.97 2.95 2.69 2.39 2.17 1.81 1.99 1.97 1.73 1.47 1.39 1.45 1.54 1.66 1.70 1.75 1.74 1.81 1.64 1.27 1.09 1.37 2.01 2.55 2.69 2.58 2.49 2.40 2.27 2.18 2.15 2.00
1.71 1.63 1.60 1.61 1.59 1.66 1.76 1.95 2.19 2.33 2.52 2.75 2.83 2.56 2.38 2.27 2.07 1.92 1.76 1.79 1.75 1.46 1.31 1.29 1.39 1.54 1.59 1.65 1.51 1.59 1.35 1.08 1.06 1.26 1.62 2.12 2.34 2.48 2.49 2.44 2.39 2.32 2.29
1.49 1.48 1.48 1.46 1.38 1.37 1.50 1.71 1.96 2.02 2.12 2.34 2.45 2.36 2.22 2.07 2.02 2.07 2.01 1.89 1.73 1.46 1.32 1.15 1.20 1.33 1.35 1.48 1.56 1.55 1.31 1.18 1.02 0.98 1.04 1.24 1.57 1.94 2.26 2.44 2.49 2.50 2.47
1.29 1.20 1.22 1.26 1.25 1.25 1.30 1.44 1.61 1.64 1.70 1.91 1.98 2.05 1.97 1.91 1.95 1.93 1.97 2.11 1.95 1.69 1.34 1.02 1.04 1.17 1.14 1.21 1.46 1.50 1.15 1.10 0.98 0.92 0.90 0.93 0.99 1.23 1.63 1.87 2.08 2.29 2.37
1.05 1.02 1.07 1.18 1.24 1.20 1.17 1.27 1.41 1.42 1.51 1.67 1.80 1.94 1.88 1.84 1.84 1.87 1.95 2.03 2.07 1.92 1.62 1.18 1.01 0.95 0.97 1.06 1.36 1.24 1.11 1.11 0.99 0.92 0.84 0.78 0.75 0.76 0.91 1.09 1.34 1.56 1.70
0.96 0.98 1.00 1.00 1.03 1.04 1.09 1.25 1.42 1.47 1.46 1.52 1.62 1.73 1.86 1.88 1.90 1.90 1.95 1.97 1.95 1.92 1.79 1.38 1.11 0.93 0.98 0.95 1.17 0.98 1.08 1.26 1.04 0.87 0.79 0.74 0.71 0.69 0.70 0.78 0.84 0.89 0.93
0.75 0.77 0.76 0.80 0.92 0.94 0.94 1.10 1.19 1.20 1.32 1.41 1.41 1.45 1.61 1.74 1.87 1.90 1.90 1.88 1.94 1.90 1.76 1.52 1.20 1.02 1.10 1.10 1.16 1.01 0.99 1.04 0.96 0.92 0.83 0.75 0.68 0.66 0.62 0.66 0.67 0.63 0.64
0.53 0.59 0.65 0.63 0.83 0.99 1.02 1.05 1.05 1.03 1.14 1.24 1.27 1.33 1.39 1.41 1.53 1.67 1.77 1.75 1.84 1.88 1.84 1.74 1.45 1.21 1.19 1.25 1.39 1.38 1.27 1.17 1.13 1.22 1.16 0.98 0.82 0.75 0.71 0.68 0.65 0.61 0.57
0.46 0.53 0.62 0.61 0.68 0.83 0.94 0.94 0.92 0.93 0.99 1.07 1.10 1.16 1.19 1.26 1.39 1.42 1.48 1.58 1.66 1.72 1.83 1.79 1.70 1.56 1.38 1.31 1.37 1.35 1.40 1.53 1.46 1.44 1.48 1.29 1.07 0.92 0.83 0.78 0.73 0.67 0.62
0.49 0.49 0.48 0.51 0.57 0.68 0.79 0.79 0.80 0.82 0.84 0.86 0.98 1.07 1.11 1.15 1.25 1.32 1.33 1.44 1.58 1.67 1.71 1.69 1.65 1.56 1.49 1.45 1.44 1.41 1.47 1.59 1.66 1.55 1.51 1.42 1.33 1.21 1.05 0.94 0.82 0.76 0.72
0.33 0.34 0.32 0.34 0.40 0.50 0.56 0.56 0.62 0.69 0.76 0.79 0.90 0.93 0.96 0.91 0.96 1.02 1.02 1.21 1.38 1.56 1.64 1.68 1.59 1.46 1.40 1.41 1.38 1.39 1.46 1.64 1.67 1.70 1.69 1.56 1.42 1.24 1.13 1.04 0.92 0.85 0.81
0.18 0.22 0.23 0.27 0.31 0.34 0.42 0.42 0.45 0.57 0.67 0.72 0.78 0.81 0.88 0.90 0.86 0.81 0.80 0.89 1.02 1.15 1.35 1.49 1.53 1.45 1.36 1.33 1.42 1.51 1.51 1.60 1.70 1.64 1.56 1.62 1.54 1.43 1.26 1.08 1.08 1.06 0.95
0.16 0.16 0.18 0.24 0.26 0.24 0.28 0.28 0.39 0.58 0.61 0.61 0.60 0.72 0.84 0.91 0.94 0.95 0.84 0.83 0.84 0.87 0.98 1.17 1.32 1.33 1.31 1.32 1.40 1.47 1.52 1.56 1.48 1.52 1.49 1.58 1.57 1.44 1.28 1.21 1.26 1.12 1.04
0.15 0.19 0.20 0.25 0.23 0.17 0.21 0.25 0.33 0.47 0.53 0.51 0.52 0.64 0.79 0.91 0.95 0.98 0.93 0.99 0.95 0.84 0.81 0.89 1.09 1.19 1.21 1.34 1.50 1.60 1.67 1.64 1.57 1.55 1.49 1.51 1.46 1.33 1.22 1.20 1.28 1.15 1.04
0.14 0.18 0.22 0.23 0.20 0.15 0.17 0.23 0.34 0.47 0.53 0.52 0.49 0.57 0.73 0.82 0.94 0.98 0.94 1.03 1.03 0.85 0.77 0.87 0.92 1.02 1.13 1.26 1.45 1.62 1.68 1.66 1.61 1.57 1.41 1.29 1.22 1.27 1.28 1.21 1.18 1.17 1.05
0.16 0.17 0.19 0.20 0.19 0.20 0.20 0.21 0.28 0.35 0.44 0.51 0.52 0.56 0.76 0.83 0.88 0.85 0.86 1.07 1.16 1.01 0.76 0.75 0.83 0.98 1.08 1.22 1.44 1.60 1.84 1.83 1.61 1.54 1.41 1.28 1.26 1.34 1.47 1.36 1.17 1.07 1.00